Regional Weather Roundup
Issued by NWS

Home | Current Version | Previous Version | Graphics & Text | Print | Product List | Glossary On
Versions: 1 2 3 4 5 6 7 8 9 10 11 12 13 14 15 16 17 18 19 20 21 22 23 24 25 26 27 28 29 30 31 32 33 34 35 36 37 38 39 40 41 42 43 44 45 46 47 48 49 50
000
ASUS43 KLOT 210512
RWRIL

ILLINOIS REGIONAL WEATHER ROUNDUP
NATIONAL WEATHER SERVICE CHICAGO/ROMEOVILLE IL
1100 PM CST MON FEB 20 2017

NOTE: "FAIR" INDICATES FEW OR NO CLOUDS BELOW 12,000 FEET WITH NO
SIGNIFICANT WEATHER AND/OR OBSTRUCTIONS TO VISIBILITY.

* THESE STATIONS ARE NOT UNDER NWS QUALITY CONTROL. THEY ALSO MAY NOT
  REPORT WEATHER SUCH AS PRECIPITATION OR FOG.

ILZ001-002-007-009-015-016-024-210600-
NORTHWEST ILLINOIS

CITY           SKY/WX    TMP DP  RH WIND       PRES   REMARKS
MOLINE         LGT RAIN  60  55  83 CALM      29.87F
STERLING*      CLOUDY    58  56  93 CALM      29.91S
SAVANNA*       RAIN      56  55  94 S6        29.89S
$$

ILZ003-004-008-010-011-017-018-210600-
NORTH CENTRAL ILLINOIS

CITY           SKY/WX    TMP DP  RH WIND       PRES   REMARKS
ROCKFORD       CLOUDY    60  50  69 SW6       29.92F
FREEPORT*      LGT RAIN  56  55  98 SW12      29.91S
ROCHELLE*      CLOUDY    56  51  82 S8        29.91F
DE KALB*       CLOUDY    55  49  79 SW8       29.92R
PERU*          CLOUDY    59  50  70 S10       29.91S
$$

ILZ005-006-012>014-019>023-210600-
NORTHEAST ILLINOIS

CITY           SKY/WX    TMP DP  RH WIND       PRES   REMARKS
CHICAGO-OHARE  CLOUDY    60  45  57 S16       29.90F
CHICAGO-MIDWAY MOCLDY    60  44  55 S13       29.92S
AURORA         CLOUDY    60  48  64 S13       29.91S
LANSING*       CLOUDY    57  48  73 S12       29.94S
JOLIET*        CLOUDY    58  47  67 SE8       29.92S
WAUKEGAN       CLOUDY    54  43  66 S8        29.89S
DUPAGE AIRPORT CLOUDY    58  45  62 S8        29.90S
KANKAKEE*      CLOUDY    56  46  70 SE9       29.94S
WHEELING       MOCLDY    59  44  57 S12       29.92S
MORRIS*        CLOUDY    58  47  68 S7        29.90F
ROMEOVILLE*    CLOUDY    56  49  77 S9        29.92R
NORTHERLY ISL    N/A     58  43  57 S13         N/A
$$

LMZ740>746-210600-
SOUTHERN LAKE MICHIGAN

STATION/POSITION SKY/WX   TEMP    WIND        PRES    VSBY  WAVE
                          AIR SEA DIR/SP/G                  HT/PER
                          (F)     (DEG/KT/KT) (MB)    (MI)  (FT/S)
HARRISON CRIB              51     170/ 18/ 19   N/A
BURNHAM HARBOR             58     160/  7/ 15   N/A
CALUMET HARBOR             59     160/ 11/ 15 1012.7F
BURNS HARBOR               59     170/ 15/ 26 1014.2F
MICHIGAN CITY              57     130/ 16/ 19   N/A
$$

ILZ025>027-034>036-040-047-049-050-058-095>099-210600-
WEST-CENTRAL ILLINOIS

CITY           SKY/WX    TMP DP  RH WIND       PRES   REMARKS
QUINCY         LGT RAIN  60  59  96 S5        29.92R FOG
GALESBURG*     RAIN      58  57  97 CALM      29.91R
MACOMB*        RAIN      58  57  96 CALM      29.93S
JACKSONVILLE*  CLOUDY    62  53  72 SW5       29.91F
PITTSFIELD*    DRIZZLE   60  59  96 W3        29.93S
$$

ILZ028>032-037-038-041>044-048-051>054-059>061-210600-
CENTRAL ILLINOIS

CITY           SKY/WX    TMP DP  RH WIND       PRES   REMARKS
PONTIAC        CLOUDY    59  53  79 S13       29.93S
BLOOMINGTON    CLOUDY    57  50  77 S9        29.93S
DECATUR        PTCLDY    60  50  69 S12       29.93S
PEORIA         CLOUDY    60  51  72 S6        29.92S
LACON*         CLOUDY    60  51  72 S3        29.91S
LINCOLN*       CLOUDY    62  53  72 S8        29.92S
SPRINGFIELD    CLOUDY    64  52  64 S12       29.92S
TAYLORVILLE    CLOUDY    60  51  71 S8        29.93S
$$

ILZ033-039-045-046-055>057-062-063-210600-
EAST-CENTRAL ILLINOIS

CITY           SKY/WX    TMP DP  RH WIND       PRES   REMARKS
CHAMPAIGN      MOCLDY    56  47  71 SE8       29.94S
RANTOUL*       CLOUDY    58  49  73 S8        29.94S
MATTOON        PTCLDY    60  49  66 S13       29.93F
PARIS*         CLOUDY    55  47  76 SE8       29.97S
$$

ILZ079-100>102-210600-
SOUTHWEST ILLINOIS

CITY           SKY/WX    TMP DP  RH WIND       PRES   REMARKS
ALTON          CLOUDY    60  52  75 SE3       29.93S
BELLEVILLE     CLOUDY    62  53  72 VRB3      29.92S
CAHOKIA*       MOCLDY    63  53  70 CALM      29.92S
SPARTA*        CLOUDY    61  52  71 SE7       29.94S
$$

ILZ064>066-069>071-074>076-080>082-084>086-088>090-092>094-210600-
SOUTH-CENTRAL ILLINOIS

CITY           SKY/WX    TMP DP  RH WIND       PRES   REMARKS
CARBONDALE     MOCLDY    62  52  69 S8        29.94F
CAIRO*         CLOUDY    61  52  72 SE8       29.93F
EFFINGHAM*     MOCLDY    60  51  73 SE8       29.96S
MARION         CLOUDY    63  52  67 S7        29.97S
MT. VERNON     CLOUDY    61  51  70 S5        29.95F
CENTRALIA*     MOCLDY    63  52  67 SE13      29.92F
SALEM*         CLOUDY    64  50  62 SE7       29.93F
METROPOLIS*    CLOUDY    54  50  85 CALM      29.96F
$$

ILZ067-068-072-073-078-083-087-091-210600-
SOUTHEAST ILLINOIS

CITY           SKY/WX    TMP DP  RH WIND       PRES   REMARKS
LAWRENCEVILLE  CLOUDY    54  46  74 SE9       29.97F
FLORA*         CLOUDY    59  51  74 S8        29.95F
FAIRFIELD*     CLOUDY    62  49  64 SE3       29.94F
HARRISBURG*    CLOUDY    55  52  88 SE5       29.97S
ROBINSON*      PTCLDY    57  47  70 S10       29.98S
CARMI*         CLOUDY    54  49  83 CALM      29.97S
$$

ABBREVIATIONS USED IN REMARKS
   TC - TEMPERATURE IN CELSIUS
  WCI - WIND CHILL INDEX
   HX - HEAT INDEX
  VSB - VISIBILITY
$$





USA.gov is the U.S. government's official web portal to all federal, state and local government web resources and services.